Regional Weather Roundup
Issued by NWS

Home | Current Version | Previous Version | Graphics & Text | Print | Product List | Glossary On
Versions: 1 2 3 4 5 6 7 8 9 10 11 12 13 14 15 16 17 18 19 20 21 22 23 24 25 26 27
000
ASUS45 KCYS 271710
RWRWY

WYOMING REGIONAL WEATHER ROUNDUP
NATIONAL WEATHER SERVICE CHEYENNE WY
1100 AM MDT TUE JUN 27 2017

NOTE:  "FAIR" INDICATES FEW OR NO CLOUDS BELOW 12,000 FEET
WITH NO SIGNIFICANT WEATHER AND/OR OBSTRUCTIONS TO VISIBILITY.

WYZ001-271800-
YELLOWSTONE NATIONAL PARK

CITY           SKY/WX    TMP DP  RH WIND       PRES   REMARKS
LK YELLOWSTONE   N/A     48  44  86 VRB3      30.13R
W YELLOWSTONE  NOT AVBL

$$
WYZ002>013-054>058-071-098>099-271800-
NORTHERN WYOMING

CITY           SKY/WX    TMP DP  RH WIND       PRES   REMARKS
JACKSON        SUNNY     68  48  49 S12       30.01F
CODY           FAIR      75  44  33 W12G20    29.85F
GREYBULL       PTSUNNY   78  40  25 N13       29.77S
WORLAND        LGT RAIN  77  44  30 SE8       29.78F
SHERIDAN       FAIR      73  53  49 CALM      29.78R
BUFFALO        PTSUNNY   76  40  27 W12       29.84S
GILLETTE       FAIR      81  46  29 NW14      29.78R
NEWCASTLE      FAIR      77  50  38 SE6       29.77F

$$
WYZ014>020-022>026-101>103-271800-
CENTRAL WYOMING

CITY           SKY/WX    TMP DP  RH WIND       PRES   REMARKS
BIG PINEY      FAIR      66  45  46 W12       30.07F
PINEDALE       FAIR      63  37  39 CALM      30.09S
DUBOIS         FAIR      64  37  36 W13G29    30.01S
LANDER         CLOUDY    73  35  25 W17G32    29.96R
RIVERTON       FAIR      77  33  20 SW21G30   29.90F
CASPER         FAIR      84  36  18 N9        29.87F
DOUGLAS        FAIR      84  49  29 W8        29.84F

$$
WYZ021-027>030-104>119-271800-
SOUTHERN WYOMING

CITY           SKY/WX    TMP DP  RH WIND       PRES   REMARKS
EVANSTON       FAIR      70  44  39 S12       30.12F
KEMMERER         N/A     68  39  34 W17       30.11R
FORT BRIDGER   FAIR      72  41  32 S12       30.13F
ROCK SPRINGS   FAIR      74  37  26 NW28G37   30.08S
DIXON          FAIR      83  29  13 SW17      30.04F
RAWLINS        FAIR      81  28  14 W24G32    30.00F
SARATOGA       FAIR      81  30  16 MISG      30.03S
LARAMIE        FAIR      82  29  14 SW24G33   30.00F
CHEYENNE       FAIR      86  38  18 S12       29.94F
TORRINGTON     FAIR      82  54  37 VRB3      29.80R
PINE BLUFFS    FAIR      79  50  36 S10G18    29.90F

$$




USA.gov is the U.S. government's official web portal to all federal, state and local government web resources and services.